When you browse on this site, cookies collect data to enhance your experience and personalize the content and advertising you see.
Visit our Privacy Policy to learn more. By continuing to use the site, you agree to this use of cookies and data.

Meteo orario Vasilkovka

Oggi, 27 Settembre, Domenica

Tempo Temperatura Precipitazioni Vento Pressione Umidità
00:00 +21°C° 0 mm 7 m/s 749 mm Hg 38%
01:00 +21°C° 0 mm 7 m/s 749 mm Hg 40%
02:00 +20°C° 0 mm 8 m/s 749 mm Hg 40%
03:00 +20°C° 0 mm 8 m/s 749 mm Hg 42%
04:00 +18°C° 0 mm 8 m/s 749 mm Hg 43%
05:00 +18°C° 0 mm 8 m/s 749 mm Hg 45%
06:00 +18°C° 0 mm 8 m/s 750 mm Hg 45%
07:00 +18°C° 0 mm 9 m/s 750 mm Hg 45%
08:00 +18°C° 0 mm 9 m/s 751 mm Hg 44%
09:00 +21°C° 0 mm 9 m/s 751 mm Hg 42%
10:00 +22°C° 0 mm 9 m/s 751 mm Hg 40%
11:00 +23°C° 0 mm 9 m/s 751 mm Hg 38%
12:00 +24°C° 0 mm 9 m/s 751 mm Hg 37%
13:00 +26°C° 0 mm 9 m/s 751 mm Hg 35%
14:00 +27°C° 0 mm 9 m/s 750 mm Hg 34%
15:00 +27°C° 0.1 mm 8 m/s 751 mm Hg 37%
16:00 +26°C° 0.1 mm 7 m/s 751 mm Hg 39%
17:00 +24°C° 0.1 mm 6 m/s 751 mm Hg 41%
18:00 +23°C° 0.4 mm 5 m/s 751 mm Hg 47%
19:00 +22°C° 0.4 mm 4 m/s 751 mm Hg 53%
20:00 +21°C° 0.4 mm 3 m/s 752 mm Hg 58%
21:00 +20°C° 0.1 mm 3 m/s 752 mm Hg 60%
22:00 +20°C° 0.1 mm 3 m/s 752 mm Hg 62%
23:00 +19°C° 0.1 mm 3 m/s 752 mm Hg 64%

Domani, 28 Settembre, Lunedi

Tempo Temperatura Precipitazioni Vento Pressione Umidità
00:00 +18°C° 0 mm 3 m/s 753 mm Hg 66%
01:00 +18°C° 0 mm 3 m/s 753 mm Hg 69%
02:00 +17°C° 0 mm 3 m/s 753 mm Hg 72%
03:00 +17°C° 0 mm 3 m/s 754 mm Hg 74%
04:00 +16°C° 0 mm 3 m/s 754 mm Hg 77%
05:00 +16°C° 0 mm 3 m/s 754 mm Hg 79%
06:00 +17°C° 0 mm 3 m/s 755 mm Hg 73%
07:00 +18°C° 0 mm 4 m/s 755 mm Hg 67%
08:00 +19°C° 0 mm 4 m/s 755 mm Hg 62%
09:00 +21°C° 0 mm 4 m/s 755 mm Hg 57%
10:00 +22°C° 0 mm 4 m/s 756 mm Hg 52%
11:00 +25°C° 0 mm 3 m/s 756 mm Hg 47%
12:00 +26°C° 0 mm 3 m/s 756 mm Hg 44%
13:00 +27°C° 0 mm 3 m/s 755 mm Hg 41%
14:00 +27°C° 0 mm 3 m/s 755 mm Hg 39%
15:00 +26°C° 0 mm 3 m/s 755 mm Hg 41%
16:00 +25°C° 0 mm 3 m/s 755 mm Hg 43%
17:00 +24°C° 0 mm 3 m/s 755 mm Hg 45%
18:00 +22°C° 0 mm 3 m/s 755 mm Hg 46%
19:00 +21°C° 0 mm 3 m/s 755 mm Hg 46%
20:00 +20°C° 0 mm 3 m/s 755 mm Hg 47%
21:00 +20°C° 0 mm 4 m/s 755 mm Hg 47%
22:00 +19°C° 0 mm 4 m/s 755 mm Hg 47%
23:00 +18°C° 0 mm 4 m/s 755 mm Hg 46%

Dopodomani, 29 Settembre, Martedi

Tempo Temperatura Precipitazioni Vento Pressione Umidità
00:00 +18°C° 0 mm 4 m/s 754 mm Hg 48%
01:00 +17°C° 0 mm 4 m/s 754 mm Hg 50%
02:00 +16°C° 0 mm 5 m/s 754 mm Hg 52%
03:00 +16°C° 0 mm 5 m/s 754 mm Hg 54%
04:00 +15°C° 0 mm 5 m/s 754 mm Hg 55%
05:00 +15°C° 0 mm 5 m/s 754 mm Hg 57%
06:00 +15°C° 0 mm 6 m/s 754 mm Hg 55%
07:00 +16°C° 0 mm 6 m/s 754 mm Hg 53%
08:00 +16°C° 0 mm 7 m/s 754 mm Hg 51%
09:00 +17°C° 0 mm 7 m/s 753 mm Hg 50%
10:00 +20°C° 0 mm 7 m/s 753 mm Hg 48%
11:00 +21°C° 0 mm 6 m/s 753 mm Hg 46%
12:00 +21°C° 0.1 mm 7 m/s 752 mm Hg 46%
13:00 +22°C° 0.1 mm 7 m/s 752 mm Hg 45%
14:00 +22°C° 0.1 mm 7 m/s 752 mm Hg 45%
15:00 +21°C° 0.4 mm 7 m/s 751 mm Hg 45%
16:00 +21°C° 0.4 mm 6 m/s 751 mm Hg 45%
17:00 +20°C° 0.4 mm 5 m/s 751 mm Hg 46%
18:00 +20°C° 0 mm 6 m/s 750 mm Hg 44%
19:00 +20°C° 0 mm 6 m/s 750 mm Hg 43%
20:00 +18°C° 0 mm 7 m/s 750 mm Hg 41%
21:00 +18°C° 0 mm 7 m/s 749 mm Hg 41%
22:00 +18°C° 0 mm 7 m/s 749 mm Hg 40%
23:00 +18°C° 0 mm 7 m/s 749 mm Hg 40%

30 Settembre, Mercoledi

Tempo Temperatura Precipitazioni Vento Pressione Umidità
00:00 +18°C° 0.1 mm 7 m/s 748 mm Hg 42%
01:00 +17°C° 0.1 mm 7 m/s 748 mm Hg 45%
02:00 +17°C° 0.1 mm 7 m/s 748 mm Hg 47%
03:00 +16°C° 0 mm 8 m/s 748 mm Hg 49%
04:00 +16°C° 0 mm 8 m/s 747 mm Hg 51%
05:00 +15°C° 0 mm 8 m/s 747 mm Hg 53%
06:00 +16°C° 0 mm 8 m/s 747 mm Hg 51%
07:00 +16°C° 0 mm 8 m/s 747 mm Hg 49%
08:00 +16°C° 0 mm 9 m/s 747 mm Hg 47%
09:00 +17°C° 0 mm 9 m/s 747 mm Hg 45%
10:00 +18°C° 0 mm 9 m/s 747 mm Hg 43%
11:00 +19°C° 0 mm 9 m/s 747 mm Hg 42%
12:00 +21°C° 0 mm 8 m/s 746 mm Hg 41%
13:00 +21°C° 0 mm 8 m/s 746 mm Hg 40%
14:00 +21°C° 0 mm 7 m/s 746 mm Hg 39%
15:00 +19°C° 1.3 mm 6 m/s 746 mm Hg 49%
16:00 +17°C° 1.3 mm 5 m/s 745 mm Hg 60%
17:00 +15°C° 1.3 mm 4 m/s 745 mm Hg 70%
18:00 +16°C° 0.9 mm 5 m/s 745 mm Hg 64%
19:00 +16°C° 0.9 mm 6 m/s 745 mm Hg 58%
20:00 +17°C° 0.9 mm 7 m/s 745 mm Hg 53%
21:00 +17°C° 0.2 mm 7 m/s 745 mm Hg 54%
22:00 +17°C° 0.2 mm 8 m/s 745 mm Hg 54%
23:00 +17°C° 0.2 mm 8 m/s 745 mm Hg 55%

1 Ottobre, Giovedi

Tempo Temperatura Precipitazioni Vento Pressione Umidità
00:00 +16°C° 0 mm 8 m/s 745 mm Hg 58%
01:00 +16°C° 0 mm 9 m/s 746 mm Hg 61%
02:00 +16°C° 0 mm 9 m/s 746 mm Hg 63%
03:00 +15°C° 0 mm 8 m/s 746 mm Hg 63%
04:00 +15°C° 0 mm 8 m/s 746 mm Hg 63%
05:00 +15°C° 0 mm 7 m/s 747 mm Hg 62%
06:00 +15°C° 0 mm 7 m/s 747 mm Hg 62%
07:00 +15°C° 0 mm 7 m/s 747 mm Hg 62%
08:00 +15°C° 0 mm 8 m/s 748 mm Hg 62%
09:00 +17°C° 0 mm 7 m/s 748 mm Hg 57%
10:00 +18°C° 0 mm 7 m/s 748 mm Hg 52%
11:00 +20°C° 0 mm 7 m/s 748 mm Hg 47%
12:00 +21°C° 0 mm 7 m/s 748 mm Hg 47%
13:00 +21°C° 0 mm 7 m/s 748 mm Hg 47%
14:00 +21°C° 0 mm 7 m/s 748 mm Hg 48%
15:00 +21°C° 0 mm 7 m/s 748 mm Hg 48%
16:00 +20°C° 0 mm 6 m/s 748 mm Hg 48%
17:00 +20°C° 0 mm 6 m/s 748 mm Hg 49%
18:00 +19°C° 0 mm 6 m/s 748 mm Hg 49%
19:00 +19°C° 0 mm 5 m/s 748 mm Hg 50%
20:00 +17°C° 0 mm 5 m/s 748 mm Hg 50%
21:00 +17°C° 0 mm 6 m/s 748 mm Hg 50%
22:00 +17°C° 0 mm 6 m/s 748 mm Hg 49%
23:00 +17°C° 0 mm 7 m/s 748 mm Hg 49%

2 Ottobre, Venerdi

Tempo Temperatura Precipitazioni Vento Pressione Umidità
00:00 +17°C° 0.2 mm 7 m/s 748 mm Hg 51%
01:00 +16°C° 0.2 mm 7 m/s 748 mm Hg 53%
02:00 +15°C° 0.2 mm 7 m/s 748 mm Hg 54%
03:00 +15°C° 0.3 mm 6 m/s 749 mm Hg 54%
04:00 +15°C° 0.3 mm 6 m/s 749 mm Hg 53%
05:00 +14°C° 0.3 mm 5 m/s 749 mm Hg 52%
06:00 +14°C° 0.1 mm 6 m/s 749 mm Hg 55%
07:00 +14°C° 0.1 mm 6 m/s 749 mm Hg 58%
08:00 +14°C° 0.1 mm 7 m/s 749 mm Hg 62%
09:00 +14°C° 0.2 mm 6 m/s 749 mm Hg 59%
10:00 +15°C° 0.2 mm 6 m/s 749 mm Hg 57%
11:00 +16°C° 0.2 mm 6 m/s 750 mm Hg 55%
12:00 +16°C° 0.1 mm 5 m/s 749 mm Hg 55%
13:00 +17°C° 0.1 mm 4 m/s 749 mm Hg 56%
14:00 +18°C° 0.1 mm 2 m/s 749 mm Hg 56%
15:00 +17°C° 0.2 mm 2 m/s 749 mm Hg 59%
16:00 +17°C° 0.2 mm 2 m/s 749 mm Hg 62%
17:00 +16°C° 0.2 mm 3 m/s 748 mm Hg 65%
18:00 +16°C° 0.7 mm 3 m/s 749 mm Hg 69%
19:00 +14°C° 0.7 mm 3 m/s 749 mm Hg 73%
20:00 +14°C° 0.7 mm 3 m/s 749 mm Hg 77%
21:00 +13°C° 0.9 mm 3 m/s 749 mm Hg 82%
22:00 +14°C° 0.9 mm 2 m/s 749 mm Hg 86%
23:00 +14°C° 0.9 mm 2 m/s 749 mm Hg 90%
Mostrare altro